Flag for Germany Weather past 2 weeks in Velbert, North Rhine-Westphalia, Germany

Now
46 °F

Drizzle. Low clouds.


Feels Like: 41 °F
Forecast: 46 / 49 °F
Wind: 10 mph from Southwest

Location: Essen

Current Time: Dec 22, 2014 at 12:35:43 PM

Latest Report: Dec 22, 2014 at 12:00 PM


Visibility: 5 mi

Pressure: 30.09 "Hg

Humidity: 93%

Dew point: 45 °F

Location of VelbertLocation

Historic Weather in Velbert — Graph

°F

Velbert temperature yesterday

Maximum temperature yesterday: 45 °F (at 11:00 PM)
Minimum temperature yesterday: 39 °F (at 2:00 AM)
Average temperature yesterday: 41 °F

Past Weeks' High & Low Weather Summary

 TemperatureHumidityPressure
High53 °F (Dec 18, 6:00 PM)100% (Dec 7, 9:00 PM)30.40 "Hg (Dec 7, 9:00 PM)
Low32 °F (Dec 14, 8:00 AM)65% (Dec 7, 3:00 PM)29.38 "Hg (Dec 12, 3:00 PM)
Average41 °F92%29.96 "Hg
* Reported Dec 7 11:00 AM — Dec 22 11:00 AM, Velbert, Weather by CustomWeather, © 2014

Note: Actual official high and low records may vary slightly from our data, if they occured in-between our weather recording intervals... More about our weather records

Advertising

Velbert weather history for previous 24 hours

 ConditionsComfort  
Time TempWeatherWind HumidityBarometerVisibility
11:00 AM
Dec 22
46 °FDrizzle. Low clouds.10 mph92%30.10 "Hg3 mi
10:00 AM46 °FLow clouds.9 mph90%30.11 "Hg14 mi
9:00 AM46 °FLow clouds.10 mph92%30.11 "Hg9 mi
8:00 AM46 °FLow clouds.9 mph92%30.10 "Hg10 mi
7:00 AM47 °FLow clouds.9 mph91%30.11 "Hg9 mi
6:00 AM46 °FLow clouds.8 mph90%30.11 "Hg15 mi
5:00 AM46 °FLow clouds.8 mph90%30.11 "Hg16 mi
4:00 AM46 °FLow clouds.8 mph89%30.14 "Hg18 mi
3:00 AM46 °FOvercast.8 mph87%30.16 "Hg18 mi
2:00 AM46 °FLow clouds.10 mph87%30.16 "Hg19 mi
1:00 AM46 °FLow clouds.10 mph88%30.18 "Hg17 mi
12:00 AM45 °FOvercast.8 mph90%30.21 "Hg16 mi
11:00 PM
Dec 21
45 °FLow clouds.7 mph94%30.22 "Hg10 mi
10:00 PM45 °FDrizzle. Low clouds.8 mph96%30.22 "Hg4 mi
9:00 PM44 °FDrizzle. Low clouds.8 mph97%30.22 "Hg6 mi
8:00 PM44 °FDrizzle. Low clouds.8 mph99%30.24 "Hg4 mi
7:00 PM44 °FLight freezing rain. Low clouds.7 mph99%30.25 "Hg2 mi
6:00 PM43 °FLight freezing rain. Low clouds.6 mph99%30.26 "Hg2 mi
5:00 PM43 °FLight freezing rain. Low clouds.7 mph98%30.27 "Hg2 mi
4:00 PM43 °FDrizzle. Low clouds.7 mph97%30.28 "Hg3 mi
3:00 PM44 °FLight freezing rain. Overcast.7 mph86%30.31 "Hg9 mi
2:00 PM43 °FDrizzle. Low clouds.7 mph86%30.33 "Hg12 mi
1:00 PM43 °FOvercast.6 mph88%30.34 "Hg19 mi
12:00 PM42 °FOvercast.6 mph86%30.37 "Hg16 mi
Weather by CustomWeather, © 2014

See weather overviewHow to use our weather pages